{"data":{"norad_id":81605,"intl_designator":"","name":"UNKNOWN","alt_names":[],"object_type":"UNKNOWN","status":"UNKNOWN","operator":null,"country":null,"launch_date":null,"launch_site_code":null,"launch_vehicle":null,"mission":null,"orbit_class":"UNKNOWN","rcs_meters":null,"size_class":null,"mass_kg":null,"dimensions":null,"purposes":[],"wikipedia_slug":null,"has_3d_model":false,"image_url":null,"decayed_at":null,"tle_current":{"epoch":"2026-09-17T01:49:52.197312Z","epoch_age_seconds":310348,"freshness":"STALE","line1":"1 81605U          26260.07629858  .00000117  00000+0  91818-3 0  9999","line2":"2 81605  56.4309 145.0372 0120215 161.4229 199.1141 12.81687789221881","mean_motion":12.81687789,"eccentricity":0.0120215,"inclination_deg":56.4309,"raan_deg":145.0372,"arg_perigee_deg":161.4229,"mean_anomaly_deg":199.1141,"bstar":0.00091818,"rev_number":22188,"period_min":112.35185451236,"perigee_km":1241.9717712609,"apogee_km":1427.4113078373,"semimajor_km":7712.8285395491,"source":"CELESTRAK","updated_at":"2026-09-20T09:00:32.391172Z"}}}